Weather in Knyazhukha

Russia / Ulyanovsk Oblast     54°33′36″N   46°33′53″E
temp.,
°C
wind,
m/s
gust,
m/s
humid.,
%
clouds,
%
prec.,
mm/h
press.,
hPa
HPBL,
m
1 july, fri
fri101:00+10nne2396100 1.3 101171
04:00+9ne61095100 1.4 1012476
07:00+7nne599497 0.9 1013456
10:00+10nne677398 1.1 10131190
13:00+12nne6766100 0.6 10131297
16:00+13nne7962100 1.0 10141495
19:00+12nne51176100 0.2 10141102
22:00+12nne7167468 0.2 1014673
2 july, sat
sat201:00+11nne514845 0.0 1014485
04:00+10nne5149618 0.0 1014411
07:00+13nne613880 0.0 1014506
10:00+18ne710675 0.0 10151024
13:00+20ne795695 0.0 10141797
16:00+21nne685788 0.0 10142083
19:00+19nne59655 0.0 1013418
22:00+14n22770 0.0 101414
3 july, sun
sun301:00+12nnw228468 0.0 101319
04:00+14nnw227421 0.0 101243
07:00+15ene128087 0.0 101289
10:00+17nne34768 0.0 1012331
13:00+20ne346774 0.6 10121084
16:00+22nne455965 1.0 10111542
19:00+19nne5978100 0.6 1012567
22:00+15nne3890100 0.7 1014179
4 july, mon
mon401:00+13n3794100 0.0 1014169
04:00+11nnw34940 0.0 101572
07:00+14n3987100 0.0 1015335
10:00+17n467425 0.1 1015645
13:00+22nne574880 0.1 10152449
16:00+22nne57506 0.1 10152330
19:00+20ne37645 0.0 1015282
22:00+15nne11705 0.0 101711
5 july, tue
tue501:00+13nw117456 0.0 101710
04:00+12wnw11755 0.0 101810
07:00+16wnw12695 0.0 101878
10:00+21wnw23615 0.0 1018563
13:00+23nw22505 0.0 10171497
16:00+24wnw23499 0.0 10171656
19:00+24wsw22665 0.0 1016189
22:00+18sw22700 0.0 101614